Content
SEND FEEDBACK

Daily
Averages
Monthly
Summary
United States of America

WILMINGTON, NORTH CAROLINA


Home > North America > United States > North Carolina
Elevation: 72 feet     Latitude: 34 16N     Longitude: 077 54W

WEATHER
 
SELECT A DAY
Number of Records: 208,628;   Date Range: 1/1/95 - 7/20/14
 
SHARE

PRINT THIS DATA

[ ← Previous Day ]
WEATHER ALMANAC - FEBRUARY 8, 2013
[ Next Day → ]
[ °C ]   °F
Weather ElementAverageHighLow
Temperature54.4 °F60.1 °F (3:53 pm)48 °F (7:53 am)
Dewpoint47.3 °F55.4 °F (2:34 am)37 °F (11:53 pm)
Humidity77.8 %100 % (3:03 am)57 % (3:53 pm)
Barometer29.78 in30.02 in (11:53 pm)29.58 in (3:03 am)
Wind Speed13.9 mph23 mph (6:15 am)
Wind Gust42.6 mph (2:19 am)
Weather ElementAverage
Visibility9 mi
Wind DirectionWSW (247.4 °)

Weather ElementTotal
Precipitation0.85 in
Heating Degree Days11 (Base 65)
Growing Degree Days4.1 (Base 50)
Averaged from 31 records on February 8, 2013
WEATHER CONDITIONS BREAKOUT
WIND DIRECTION BREAKOUT
WEATHER BY HOUR - FEBRUARY 8, 2013
[ °C ]   °F
Local TimeTemperatureDewpointHumidityBarometerVisibilityWind DirectionWind SpeedGust SpeedPrecipitationEventsConditions
12:53 AM55.9 °F54.0 °F93 %29.72 in3.0 miENE (60°)16.1 mph24.2 mph0.17 inRainRain
1:53 AM55.9 °F54.0 °F93 %29.66 in5.0 miENE (60°)17.3 mph23.0 mph0.21 inRainRain
2:19 AM59.0 °F53.6 °F82 %29.62 in6.0 miEast (90°)19.6 mph42.6 mph0.07 inRainRain
2:34 AM57.2 °F55.4 °F94 %29.61 in10.0 miNE (50°)12.7 mph0.09 inRainLight Rain
2:43 AM57.2 °F55.4 °F94 %29.61 in7.0 miNE (50°)10.4 mph0.09 inRainRain
2:53 AM57.0 °F55.0 °F93 %29.60 in2.5 miNNE (20°)8.1 mph0.13 inRainHeavy Rain
3:03 AM55.4 °F55.4 °F100 %29.58 in4.0 miNE (40°)6.9 mph0.02 inRainLight Rain
3:53 AM53.1 °F51.1 °F93 %29.58 in10.0 miNNW (330°)17.3 mph25.3 mph0.06 inRainLight Rain
4:53 AM51.1 °F48.9 °F92 %29.61 in10.0 miNNW (330°)19.6 mph24.2 mph0.01 inOvercast
5:53 AM48.9 °F45.0 °F86 %29.66 in10.0 miNW (320°)21.9 mph27.6 mphOvercast
6:15 AM48.2 °F44.6 °F87 %29.68 in10.0 miNW (320°)23.0 mph27.6 mphOvercast
6:53 AM48.2 °F44.6 °F87 %29.71 in10.0 miNW (310°)19.6 mph28.8 mphOvercast
7:53 AM48.0 °F44.1 °F86 %29.74 in10.0 miNW (320°)17.3 mph26.5 mphOvercast
8:53 AM48.9 °F45.0 °F86 %29.78 in10.0 miNW (320°)13.8 mph25.3 mphOvercast
9:21 AM51.8 °F46.4 °F82 %29.80 in10.0 miNNW (330°)15.0 mphOvercast
9:50 AM53.6 °F44.6 °F72 %29.81 in10.0 miNNW (330°)16.1 mphPartly Cloudy
9:53 AM53.1 °F45.0 °F74 %29.81 in10.0 miNNW (330°)11.5 mph21.9 mphPartly Cloudy
10:53 AM55.9 °F46.0 °F69 %29.84 in10.0 miNW (310°)19.6 mphClear
11:53 AM57.0 °F46.0 °F67 %29.83 in10.0 miWNW (300°)18.4 mph26.5 mphClear
12:53 PM59.0 °F46.9 °F64 %29.83 in10.0 miWNW (300°)16.1 mph23.0 mphClear
1:53 PM57.9 °F45.0 °F62 %29.83 in10.0 miWNW (290°)13.8 mphClear
2:53 PM59.0 °F45.0 °F60 %29.84 in10.0 miWNW (290°)16.1 mph21.9 mphClear
3:53 PM60.1 °F45.0 °F57 %29.84 in10.0 miWNW (290°)10.4 mphClear
4:53 PM60.1 °F45.0 °F57 %29.85 in10.0 miWest (270°)10.4 mphClear
5:53 PM57.9 °F45.0 °F62 %29.88 in10.0 miWest (280°)10.4 mphMostly Cloudy
6:53 PM57.0 °F45.0 °F64 %29.90 in10.0 miWest (270°)5.8 mphMostly Cloudy
7:53 PM55.0 °F45.0 °F69 %29.92 in10.0 miWest (270°)5.8 mphMostly Cloudy
8:53 PM52.0 °F45.0 °F77 %29.94 in10.0 miWest (280°)3.5 mphScattered Clouds
9:53 PM51.1 °F45.0 °F80 %29.97 in10.0 miWest (270°)6.9 mphPartly Cloudy
10:53 PM53.1 °F42.1 °F66 %29.99 in10.0 miNW (310°)12.7 mph18.4 mphClear
11:53 PM48.9 °F37.0 °F64 %30.02 in10.0 miNNW (330°)13.8 mphClear
Hourly data recorded from KILM, located miles away from Wilmington, North Carolina







STORIES FROM OUR PARTNERS